Location: Il Ritiro
(43.4167°N, 13.1333°E)
Time: 08:14:11
(UTC+00:00)

SPOT 5 - Pass Details

Date: 05 July 2020
Orbit: 622 x 816 km, 98.3° (Epoch: 06 August)

Event Time Altitude Azimuth Distance (km) Brightness Sun altitude
Exits shadow 21:13:56 25° 193° (SSW) 1,491 4.1 -18.5°
Maximum altitude 21:16:41 53° 259° (W) 910 3.4 -18.8°
Drops below altitude 10° 21:21:26 10° 337° (NNW) 2,207 6.6 -19.2°
Sets 21:23:43 0° 342° (NNW) 3,100 7.7 -19.4°
